Find GGSE 5

NORAD ID: 2834 Int'l Des: 1967-053 Owner: NRO/NRL Country: US operational
LEOCIRCULAR

Live Position

Loading 3D Globe...

About GGSE 5

Description loading...

Upcoming Passes

Passes for default location (London). Set your location on the main map for personalized predictions.

Altitude History

Loading altitude history...

Two-Line Element Set

1 02834U 67053D 26105.48223637 -.00000027 00000-0 18860-4 0 9994
2 02834 69.9715 267.3171 0009998 284.6984 75.3013 13.96183776997385
Epoch: Apr 15, 2026 • Age: 11 hours

Current Status

Altitude 914.4 km
Velocity 7.39 km/s
Sub-Earth Point 25.94°N, 107.2°W
Type other

Most Searched